Total_Precipitation_Accumulation
0.48 0.42 0.39 0.46 0.46 0.41 0.38 0.43 0.50 0.53 0.54 0.66 0.80 0.91 1.00 1.14 1.32 1.37 1.44 1.59 1.65 1.65 1.75 1.84 1.91 1.87 1.82 1.91 2.11 2.53 2.42 2.07 1.85 1.84 1.71 1.57 1.54 1.59 1.55 1.68 1.77 1.67 1.63
0.38 0.34 0.33 0.35 0.38 0.38 0.36 0.39 0.49 0.58 0.63 0.69 0.84 1.01 1.24 1.33 1.46 1.64 1.65 1.66 1.73 1.78 1.83 2.02 2.13 2.09 2.09 2.19 2.26 2.55 2.74 2.47 2.25 2.24 2.41 2.17 1.95 1.63 1.38 1.43 1.54 1.60 1.64
0.33 0.27 0.29 0.31 0.33 0.35 0.42 0.45 0.56 0.76 0.93 1.01 1.23 1.54 1.80 1.85 1.80 1.82 1.90 1.88 1.90 1.96 1.91 1.98 2.17 2.19 2.19 2.27 2.48 2.80 3.14 3.11 2.80 2.54 2.72 2.47 2.18 2.09 1.59 1.29 1.35 1.49 1.61
0.41 0.32 0.30 0.33 0.31 0.36 0.50 0.68 0.88 1.18 1.40 1.50 1.67 1.91 2.02 2.05 1.99 2.00 2.01 2.04 1.96 1.88 1.87 1.95 2.12 2.29 2.43 2.57 2.64 2.62 3.03 3.38 3.18 2.96 2.58 2.26 2.11 2.27 2.13 1.65 1.35 1.40 1.45
0.45 0.46 0.45 0.50 0.51 0.61 0.82 1.17 1.44 1.64 1.76 1.80 1.86 2.05 2.19 2.36 2.40 2.28 2.13 2.07 2.07 2.00 1.90 1.91 1.95 2.00 2.12 2.29 2.44 2.50 2.75 3.01 3.19 3.17 2.94 2.63 2.42 1.98 1.99 2.07 1.81 1.54 1.32
0.50 0.60 0.73 0.87 0.94 1.03 1.24 1.48 1.63 1.78 1.76 1.72 1.75 1.86 2.06 2.23 2.25 2.29 2.26 2.16 2.09 2.01 1.86 1.79 1.85 1.87 1.88 2.03 2.16 2.28 2.56 2.77 2.93 3.00 2.92 2.81 2.72 2.39 2.11 1.95 1.91 1.77 1.53
0.60 0.82 0.99 1.13 1.23 1.33 1.44 1.48 1.47 1.54 1.56 1.52 1.51 1.58 1.68 1.72 1.77 1.90 1.83 1.71 1.63 1.59 1.56 1.48 1.50 1.63 1.71 1.88 1.97 1.93 2.01 2.19 2.42 2.60 2.66 2.70 2.60 2.52 2.42 2.27 2.05 1.81 1.49
0.87 1.01 1.12 1.23 1.28 1.41 1.46 1.42 1.38 1.36 1.30 1.23 1.24 1.24 1.30 1.39 1.39 1.39 1.36 1.28 1.25 1.23 1.19 1.20 1.19 1.24 1.33 1.55 1.78 1.80 1.81 1.87 1.97 2.05 2.33 2.52 2.49 2.50 2.29 2.18 2.22 1.98 1.66
1.12 1.31 1.31 1.23 1.18 1.23 1.31 1.28 1.23 1.17 1.08 1.00 1.02 1.03 1.11 1.15 1.12 1.07 1.02 1.02 0.95 0.95 0.93 0.98 1.07 1.14 1.13 1.23 1.39 1.60 1.66 1.74 1.81 1.82 1.99 2.14 2.24 2.24 2.07 2.10 2.19 2.09 1.79
1.21 1.49 1.60 1.48 1.23 1.06 1.10 1.06 1.05 1.10 1.09 1.03 1.03 1.00 0.93 0.86 0.83 0.83 0.77 0.77 0.83 0.84 0.85 0.86 0.91 0.99 1.03 1.11 1.22 1.28 1.39 1.49 1.65 1.82 1.95 1.97 2.01 2.09 1.99 1.98 2.09 2.08 1.90
1.43 1.55 1.57 1.44 1.28 1.02 0.96 0.95 0.95 0.99 1.06 0.99 1.01 0.99 0.88 0.75 0.70 0.65 0.60 0.61 0.65 0.70 0.70 0.76 0.86 0.89 0.92 0.95 0.96 1.00 1.06 1.14 1.26 1.32 1.48 1.69 1.88 1.98 1.98 2.02 2.07 2.10 1.97
1.13 1.12 1.20 1.20 1.14 1.01 0.95 1.02 1.06 1.07 1.02 0.96 0.93 0.90 0.84 0.74 0.73 0.66 0.59 0.60 0.65 0.67 0.68 0.74 0.80 0.82 0.88 0.90 0.88 0.88 0.93 1.04 1.14 1.17 1.21 1.34 1.60 1.75 1.85 1.94 1.96 2.03 1.99
0.87 0.80 0.89 1.03 0.97 0.91 0.94 1.03 1.17 1.19 1.12 1.01 0.92 0.89 0.84 0.83 0.86 0.74 0.65 0.65 0.73 0.84 0.86 0.85 0.88 0.84 0.87 0.89 0.87 0.89 0.92 0.95 1.02 1.05 1.07 1.17 1.30 1.46 1.55 1.65 1.76 1.85 1.96
0.72 0.67 0.61 0.67 0.69 0.71 0.72 0.85 1.11 1.34 1.31 1.18 1.05 0.97 0.92 0.92 0.89 0.76 0.70 0.66 0.69 0.73 0.76 0.84 0.91 0.96 1.01 0.99 0.94 0.94 0.95 0.90 0.92 0.99 1.05 1.08 1.10 1.29 1.51 1.61 1.70 1.75 1.85
0.53 0.48 0.44 0.43 0.44 0.49 0.57 0.69 0.99 1.22 1.21 1.18 1.04 0.93 0.86 0.80 0.74 0.72 0.74 0.69 0.63 0.61 0.61 0.70 0.79 0.90 0.99 1.03 1.03 0.90 0.80 0.81 0.87 0.87 0.88 0.95 1.04 1.14 1.35 1.46 1.68 1.73 1.87
0.47 0.45 0.39 0.35 0.32 0.32 0.40 0.50 0.69 0.88 0.95 0.97 0.91 0.79 0.77 0.70 0.62 0.66 0.75 0.75 0.64 0.58 0.57 0.61 0.59 0.63 0.68 0.88 0.88 0.77 0.65 0.68 0.78 0.85 0.86 0.86 0.91 0.97 1.03 1.08 1.31 1.51 1.66
0.48 0.47 0.44 0.40 0.37 0.35 0.36 0.39 0.46 0.57 0.64 0.66 0.66 0.57 0.57 0.67 0.69 0.72 0.72 0.65 0.56 0.59 0.57 0.51 0.47 0.49 0.56 0.62 0.60 0.66 0.65 0.66 0.71 0.79 0.87 0.92 0.90 0.96 1.04 1.05 1.13 1.22 1.28
0.48 0.46 0.43 0.37 0.35 0.34 0.34 0.37 0.39 0.42 0.42 0.39 0.37 0.34 0.43 0.57 0.59 0.56 0.54 0.49 0.49 0.54 0.59 0.51 0.47 0.51 0.52 0.56 0.61 0.64 0.63 0.74 0.81 0.81 0.80 0.93 0.98 1.03 1.18 1.18 1.26 1.20 1.11
0.27 0.27 0.28 0.25 0.23 0.24 0.25 0.25 0.23 0.25 0.24 0.21 0.22 0.26 0.28 0.32 0.32 0.30 0.32 0.38 0.45 0.50 0.46 0.49 0.62 0.61 0.61 0.70 0.65 0.57 0.63 0.76 0.84 0.79 0.81 0.92 1.00 1.18 1.29 1.31 1.32 1.22 1.15
0.11 0.14 0.20 0.23 0.21 0.21 0.23 0.23 0.22 0.22 0.22 0.22 0.23 0.25 0.25 0.28 0.28 0.28 0.29 0.33 0.38 0.43 0.45 0.49 0.62 0.66 0.70 0.71 0.58 0.55 0.65 0.76 0.85 0.84 0.83 1.04 1.04 1.14 1.19 1.24 1.36 1.36 1.25
0.11 0.13 0.16 0.20 0.21 0.20 0.21 0.20 0.19 0.22 0.27 0.28 0.26 0.25 0.25 0.27 0.32 0.35 0.35 0.34 0.34 0.37 0.41 0.46 0.50 0.50 0.49 0.49 0.50 0.52 0.56 0.66 0.78 0.80 0.81 0.77 0.93 0.97 1.06 1.17 1.22 1.45 1.37
0.09 0.13 0.15 0.18 0.21 0.21 0.21 0.21 0.20 0.21 0.27 0.29 0.27 0.27 0.28 0.28 0.32 0.40 0.40 0.38 0.37 0.35 0.35 0.40 0.48 0.49 0.43 0.40 0.41 0.45 0.51 0.63 0.65 0.65 0.73 0.72 0.82 0.86 0.93 0.94 1.12 1.32 1.31
0.08 0.12 0.15 0.18 0.20 0.22 0.25 0.26 0.25 0.25 0.27 0.28 0.29 0.29 0.30 0.30 0.32 0.35 0.37 0.39 0.38 0.39 0.39 0.40 0.45 0.47 0.46 0.45 0.47 0.49 0.54 0.57 0.51 0.48 0.65 0.73 0.81 0.77 0.75 0.89 1.10 1.15 1.18
0.08 0.10 0.12 0.16 0.22 0.25 0.26 0.30 0.31 0.32 0.32 0.32 0.33 0.33 0.34 0.34 0.35 0.37 0.40 0.42 0.43 0.44 0.43 0.43 0.48 0.51 0.50 0.46 0.43 0.45 0.48 0.49 0.47 0.49 0.65 0.79 0.84 0.80 0.77 0.85 0.99 1.03 1.16
0.13 0.12 0.13 0.15 0.20 0.25 0.28 0.33 0.34 0.37 0.36 0.35 0.36 0.37 0.37 0.37 0.39 0.41 0.44 0.45 0.44 0.46 0.44 0.45 0.48 0.47 0.45 0.45 0.47 0.47 0.48 0.49 0.51 0.61 0.77 0.90 0.90 0.91 0.87 0.90 1.00 0.99 0.98
0.14 0.14 0.14 0.14 0.16 0.18 0.20 0.25 0.28 0.32 0.35 0.38 0.36 0.34 0.37 0.40 0.39 0.40 0.40 0.43 0.45 0.47 0.44 0.42 0.45 0.45 0.45 0.47 0.49 0.52 0.54 0.53 0.62 0.79 0.94 1.06 1.13 1.14 1.09 1.05 1.02 0.96 0.94